Location: Laguna de la Cañada del Gallo
(40.3974°N, 5.2096°W)
Time: 14:11:41
(UTC+00:00)

Cosmos 2100 Rocket - Visible Passes

Search period start: 12 July 2024 00:00
Search period end: 22 July 2024 00:00
Orbit: 955 x 1000 km, 82.9° (Epoch: 11 July)

Date Brightness Start Highest point End Pass type
(mag) Time Alt. Az. Time Alt. Az. Time Alt. Az.
12 Jul 5.4 00:26:12 23° E 00:27:20 24° E 00:32:05 10° NNE visible
12 Jul 4.4 02:10:55 41° WSW 02:12:21 48° WNW 02:18:18 10° N visible
13 Jul 4.5 00:52:11 42° ESE 00:53:03 44° E 00:58:52 10° NNE visible
13 Jul 5.2 02:36:54 23° W 02:38:39 26° WNW 02:43:46 10° NNW visible
13 Jul 6.2 23:33:43 10° E 23:34:38 10° ENE 23:35:32 10° ENE visible
14 Jul 3.8 01:18:09 69° SSE 01:18:57 82° E 01:25:09 10° N visible
14 Jul 5.8 03:02:52 12° W 03:05:10 14° WNW 03:08:23 10° NW visible
14 Jul 5.5 23:59:24 21° E 00:00:08 21° E 00:04:33 10° NE visible
15 Jul 4.2 01:44:07 50° WSW 01:45:02 55° W 01:51:05 10° N visible
16 Jul 4.7 00:25:21 38° E 00:25:49 39° E 00:31:29 10° NNE visible
16 Jul 5.0 02:10:04 28° W 02:11:18 30° WNW 02:16:39 10° NNW visible
17 Jul 3.9 00:51:18 71° SE 00:51:41 73° E 00:57:51 10° N visible
17 Jul 5.7 02:36:00 15° W 02:37:46 16° WNW 02:41:32 10° NNW visible
17 Jul 5.7 23:32:31 18° E 23:32:57 19° E 23:37:00 10° NE visible
18 Jul 4.0 01:17:13 60° WSW 01:17:43 62° W 01:23:51 10° N visible
18 Jul 4.9 23:58:26 34° E 23:58:35 35° E 00:04:05 10° NNE visible
19 Jul 4.9 01:43:08 32° W 01:43:57 34° WNW 01:49:31 10° N visible
20 Jul 4.0 00:24:20 65° E 00:24:25 65° E 00:30:33 10° NNE visible
20 Jul 5.6 02:09:03 17° W 02:10:23 19° WNW 02:14:35 10° NNW visible
20 Jul 5.8 23:05:32 16° E 23:05:45 16° E 23:09:22 10° NE visible
21 Jul 3.9 00:50:14 70° W 00:50:25 70° W 00:56:38 10° N visible
21 Jul 5.0 23:31:25 31° E 23:31:25 31° E 23:36:40 10° NNE visible
